Погода в Чике

Россия / Республика Коми     65°29′07″N   54°19′41″E
темп.,
°C
ветер,
м/с
пор.,
м/с
влажн.,
%
обл.,
%
осадки,
мм/ч
давл.,
гПа
погр.,
м
7 мая, пт
пт700:00−1сз378964 0.1 1009384
03:00−1ссз248662 0.1 1010339
06:000всв227669 0.0 1011565
09:00+4вюв23586 0.0 1011850
12:00+8юв344519 0.0 10111200
15:00+8ююв3547100 0.0 10111016
18:00+6юв3863100 0.0 1011535
21:00+5вюв2671100 0.1 1011313
8 мая, сб
сб800:00+5вюв3874100 0.0 1010331
03:00+4вюв3982100 0.0 1008285
06:00+6юв41188100 0.4 1006420
09:00+7юз5992100 2.1 1007721
12:00+6юз41091100 0.4 1012953
15:00+10зюз496598 0.5 10151403
18:00+10зюз365833 0.1 1016512
21:00+6ююз11805 0.1 101810
9 мая, вс
вс900:00+5ююв2289100 0.0 101919
03:00+4юв2885100 0.0 1019161
06:00+7юв31174100 0.0 1018408
09:00+11юв41160100 0.0 1017723
12:00+14юв51149100 0.0 10151244
15:00+16ююв61345100 0.0 10131390
18:00+16ююв61553100 0.0 10111341
21:00+16ю41254100 0.0 1010616
10 мая, пн
пн1000:00+14ю61575100 0.6 10111191
03:00+13ю51376100 1.4 1010858
06:00+13ююз61385100 1.4 10101194
09:00+5зсз5790100 6.1 1014648
12:00+4зсз4890100 4.8 1018703
15:00+7зсз2757100 5.1 10211386
18:00+9ю115259 0.0 102161
21:00+5юз22695 0.0 102327
11 мая, вт
вт1100:00+4ююз22745 0.0 102425
03:00+3юз228099 0.0 102429
06:00+6юз377298 0.0 1024356
09:00+8юз377987 0.2 1024617
12:00+12ююз3757100 0.1 10221476
15:00+9ююз3775100 0.3 10221295
18:00+8ю2587100 0.3 1021217
21:00+7юз1393100 0.3 1021110